map of MHK home
MHK - Airport
Location
City:  Manhattan, Kansas, United States
Name:Manhattan Regional
ICAO:KMHK
IATA:MHK
FAA LID:MHK

Details
Type:Airport (Part 139 Class I)
Use:Public/Civil
Latitude:3908'28"N (39.141234)
Longitude:9640'18"W (-96.671796)
Datum:WGS 1984
Elevation:1066 ft (325 m)
Variation:3.03E (WMM2015 magnetic declination)
-0.10 annual change
Runways:2
Longest:7000 × 150 ft (2134 × 45.5 m), paved

Time
Time Zone:UTC-6 (DST-5)
Local Time:

Weather
METAR:KMHK 170252Z 00000KT 10SM CLR 01/M04 A3031 RMK AO2 SLP275 T00061044 51004
TAF:KMHK 162320Z 1700/1724 36003KT P6SM SKC
FM171000 00000KT 4SM MIFG SKC
FM171500 17007KT P6SM SKC

Related Locations
Nearby:
Farthest:YAUG: 10655 mi / 17147 km
Augusta [Augusta Airport], WA, AU

Find:

   beyond  
but within

Other Information
Maps:
NOTAMs:
Links:
Sources:

  
  • flag of United States
  • flag of Kansas
  

Airport Diagram

Airport diagram for MHK

Airport diagram PDF

Sectional Chart

Flight Planning
at skyvector.com

Satellite Image

Google Maps Satellite view

 

Copyright © 2004-2018 Karl L. Swartz. All rights reserved.
The Great Circle Mapper name and logo are trademarks of the Great Circle Mapper.
All other trademarks mentioned herein belong to their respective owners.
Please see credits for attibutions and further copyright information.

  Follow gcmap on Facebook Follow gcmap on Twitter Follow gcmap on Google+ GCmap on LinkedIn

hCard Microformat

Geo Microformat